Weather History for Sacramento / Mc Clellan, CA

Change the Weather History Date:

Saturday, November 24, 2012

  Actual Average (KMHR) Record (KMHR)
Temperature  
Mean Temperature 50 °F -  
Max Temperature 62 °F 55 °F 64 °F (2005)
Min Temperature 39 °F 39 °F 30 °F (2006)
Degree Days  
Heating Degree Days 14    
Moisture  
Dew Point 45 °F    
Average Humidity 84    
Maximum Humidity 100    
Minimum Humidity 55    
Precipitation  
Precipitation 0.00 in - - ()
Sea Level Pressure  
Sea Level Pressure 30.14 in    
Wind  
Wind Speed 1 mph ()    
Max Wind Speed 6 mph    
Max Gust Speed -    
Visibility 6.2 miles    
Events Fog    
Averages and records for this station are not official NWS values.
T = Trace of Precipitation, MM = Missing Value Source: Averaged Metar Reports

Daily Weather History Graph

Daily Weather History Graph

Search for Another Location

Airport:

Trip Planner

Search our weather history database for the weather conditions in past years. The results will help you decide how hot, cold, wet, or windy it might be!

Date:

Astronomy

Nov. 24, 2012 Rise Set
Actual Time 6:58 AM PST 4:46 PM PST
Civil Twilight 6:29 AM PST 5:15 PM PST
Nautical Twilight 5:56 AM PST 5:48 PM PST
Astronomical Twilight 5:24 AM PST 6:20 PM PST
Moon 2:32 PM PST (11/24) 3:21 AM PST (11/24)
Length of Visible Light 10h 46m
Length of Day
9h 48m
Waxing Gibbous, 88% of the Moon is Illuminated
Nov 24
Waxing Gibbous
Nov 28
Full
Dec 6
Last Quarter
Dec 13
New
Dec 19
First Quarter

Hourly Weather History & Observations

Time (PST) Temp. Windchill Dew Point Humidity Pressure Visibility Wind Dir Wind Speed Gust Speed Precip Events Conditions
12:10 AM 44.6 °F - 44.6 °F 100% 30.22 in 5.0 mi Calm Calm - N/A   Clear
12:30 AM 44.6 °F - 44.6 °F 100% 30.22 in 2.5 mi Calm Calm - N/A   Clear
12:50 AM 44.6 °F - 42.8 °F 93% 30.22 in 10.0 mi Calm Calm - N/A   Clear
1:10 AM 44.6 °F - 42.8 °F 93% 30.21 in 9.0 mi Calm Calm - N/A   Clear
1:30 AM 46.4 °F - 44.6 °F 93% 30.21 in 6.0 mi Calm Calm - N/A   Clear
1:50 AM 46.4 °F - 44.6 °F 93% 30.21 in 7.0 mi Calm Calm - N/A   Clear
2:10 AM 46.4 °F 45.2 °F 44.6 °F 93% 30.21 in 6.0 mi SE 3.5 mph - N/A   Clear
2:30 AM 44.6 °F - 44.6 °F 100% 30.21 in 6.0 mi Calm Calm - N/A   Mist
2:50 AM 44.6 °F - 42.8 °F 93% 30.21 in 6.0 mi Calm Calm - N/A   Clear
3:10 AM 42.8 °F - 41.0 °F 93% 30.21 in 1.2 mi Calm Calm - N/A   Clear
3:30 AM 41.0 °F - 41.0 °F 100% 30.20 in 1.0 mi Calm Calm - N/A   Clear
3:50 AM 41.0 °F - 41.0 °F 100% 30.20 in 0.2 mi Calm Calm - N/A Fog Fog
4:10 AM 41.0 °F - 41.0 °F 100% 30.20 in 2.5 mi Calm Calm - N/A   Clear
4:30 AM 41.0 °F - 41.0 °F 100% 30.20 in 6.0 mi Calm Calm - N/A   Clear
4:50 AM 41.0 °F - 41.0 °F 100% 30.19 in 7.0 mi Calm Calm - N/A   Clear
5:10 AM 41.0 °F - 41.0 °F 100% 30.20 in 4.0 mi Calm Calm - N/A   Clear
5:30 AM 41.0 °F - 39.2 °F 93% 30.20 in 0.2 mi Calm Calm - N/A Fog Fog
5:50 AM 41.0 °F - 39.2 °F 93% 30.19 in 1.8 mi Calm Calm - N/A   Clear
6:10 AM 41.0 °F - 39.2 °F 93% 30.20 in 4.0 mi Calm Calm - N/A   Clear
6:30 AM 39.2 °F - 39.2 °F 100% 30.20 in 7.0 mi Calm Calm - N/A   Clear
6:50 AM 39.2 °F - 39.2 °F 100% 30.20 in 5.0 mi Calm Calm - N/A   Clear
7:10 AM 39.2 °F - 39.2 °F 100% 30.20 in 1.2 mi Calm Calm - N/A   Clear
7:30 AM 41.0 °F - 39.2 °F 93% 30.21 in 6.0 mi Calm Calm - N/A   Clear
7:50 AM 41.0 °F - 41.0 °F 100% 30.21 in 6.0 mi Calm Calm - N/A   Clear
8:10 AM 42.8 °F - 41.0 °F 93% 30.21 in 8.0 mi Calm Calm - N/A   Clear
8:30 AM 44.6 °F - 44.6 °F 100% 30.22 in 8.0 mi Calm Calm - N/A   Clear
8:50 AM 46.4 °F - 44.6 °F 93% 30.22 in 9.0 mi Calm Calm - N/A   Clear
9:10 AM 48.2 °F - 46.4 °F 93% 30.22 in 9.0 mi Calm Calm - N/A   Clear
9:30 AM 50.0 °F - 46.4 °F 87% 30.21 in 9.0 mi Calm Calm - N/A   Clear
9:50 AM 51.8 °F - 46.4 °F 82% 30.21 in 9.0 mi Calm Calm - N/A   Clear
10:10 AM 53.6 °F - 48.2 °F 82% 30.21 in 9.0 mi Calm Calm - N/A   Clear
10:30 AM 55.4 °F - 48.2 °F 77% 30.20 in 9.0 mi Calm Calm - N/A   Clear
10:50 AM 55.4 °F - 48.2 °F 77% 30.19 in 9.0 mi Calm Calm - N/A   Clear
11:10 AM 57.2 °F - 48.2 °F 72% 30.18 in 10.0 mi West 3.5 mph - N/A   Clear
11:30 AM 59.0 °F - 50.0 °F 72% 30.17 in 9.0 mi West 4.6 mph - N/A   Clear
11:50 AM 59.0 °F - 48.2 °F 67% 30.16 in 9.0 mi West 4.6 mph - N/A   Clear
12:10 PM 59.0 °F - 46.4 °F 63% 30.15 in 10.0 mi West 3.5 mph - N/A   Clear
12:30 PM 59.0 °F - 48.2 °F 67% 30.14 in 10.0 mi WNW 4.6 mph - N/A   Clear
12:50 PM 59.0 °F - 48.2 °F 67% 30.13 in 10.0 mi West 4.6 mph - N/A   Clear
1:10 PM 59.0 °F - 46.4 °F 63% 30.12 in 10.0 mi Calm Calm - N/A   Clear
1:30 PM 60.8 °F - 46.4 °F 59% 30.11 in 10.0 mi NW 5.8 mph - N/A   Clear
1:50 PM 60.8 °F - 46.4 °F 59% 30.10 in 10.0 mi NNW 3.5 mph - N/A   Clear
2:10 PM 62.6 °F - 48.2 °F 59% 30.09 in 10.0 mi NW 4.6 mph - N/A   Clear
2:30 PM 62.6 °F - 46.4 °F 55% 30.09 in 10.0 mi WNW 3.5 mph - N/A   Clear
2:50 PM 62.6 °F - 46.4 °F 55% 30.08 in 9.0 mi Calm Calm - N/A   Clear
3:10 PM 62.6 °F - 46.4 °F 55% 30.08 in 10.0 mi North 3.5 mph - N/A   Clear
3:30 PM 62.6 °F - 46.4 °F 55% 30.07 in 10.0 mi NNW 4.6 mph - N/A   Clear
3:50 PM 62.6 °F - 48.2 °F 59% 30.07 in 9.0 mi NW 3.5 mph - N/A   Clear
4:10 PM 60.8 °F - 48.2 °F 63% 30.07 in 3.0 mi Calm Calm - N/A   Haze
4:30 PM 59.0 °F - 46.4 °F 63% 30.06 in 1.2 mi Calm Calm - N/A   Haze
4:50 PM 59.0 °F - 46.4 °F 63% 30.06 in 10.0 mi Calm Calm - N/A   Clear
5:10 PM 57.2 °F - 46.4 °F 67% 30.06 in 10.0 mi Calm Calm - N/A   Unknown
5:30 PM 55.4 °F - 50.0 °F 82% 30.06 in 10.0 mi Calm Calm - N/A   Clear
5:50 PM 53.6 °F - 46.4 °F 77% 30.06 in 4.0 mi Calm Calm - N/A   Haze
6:10 PM 53.6 °F - 46.4 °F 77% 30.06 in 10.0 mi Calm Calm - N/A   Clear
6:30 PM 51.8 °F - 48.2 °F 88% 30.06 in 5.0 mi Calm Calm - N/A   Clear
6:50 PM 51.8 °F - 48.2 °F 88% 30.06 in 3.0 mi Calm Calm - N/A   Clear
7:10 PM 50.0 °F - 46.4 °F 87% 30.05 in 3.0 mi Calm Calm - N/A   Clear
7:30 PM 50.0 °F - 46.4 °F 87% 30.05 in 3.0 mi Calm Calm - N/A   Clear
7:50 PM 50.0 °F - 48.2 °F 94% 30.05 in 5.0 mi Calm Calm - N/A   Clear
8:10 PM 48.2 °F - 46.4 °F 93% 30.05 in 5.0 mi Calm Calm - N/A   Clear
8:30 PM 48.2 °F - 46.4 °F 93% 30.05 in 5.0 mi Calm Calm - N/A   Clear
8:50 PM 48.2 °F - 44.6 °F 87% 30.05 in 3.0 mi Calm Calm - N/A   Clear
9:10 PM 46.4 °F - 44.6 °F 93% 30.05 in 3.0 mi Calm Calm - N/A   Clear
9:30 PM 46.4 °F - 44.6 °F 93% 30.05 in 5.0 mi Calm Calm - N/A   Clear
9:50 PM 46.4 °F - 42.8 °F 87% 30.06 in 2.5 mi Calm Calm - N/A   Clear
10:10 PM 46.4 °F - 44.6 °F 93% 30.06 in 1.2 mi Calm Calm - N/A   Clear
10:30 PM 44.6 °F - 42.8 °F 93% 30.06 in 1.5 mi Calm Calm - N/A   Clear
10:50 PM 46.4 °F - 44.6 °F 93% 30.06 in 5.0 mi Calm Calm - N/A   Clear
11:10 PM 46.4 °F - 44.6 °F 93% 30.06 in 4.0 mi Calm Calm - N/A   Clear
11:30 PM 46.4 °F - 44.6 °F 93% 30.06 in 3.0 mi Calm Calm - N/A   Clear
11:50 PM 44.6 °F - 44.6 °F 100% 30.05 in 5.0 mi Calm Calm - N/A   Clear